Date String (YYYY-MM-DD hh:mm:ss) UTC,Instrument flags,absolute air pressure of the measurement (hPa),sample flow rate (lpm),inlet stack bypass flow (lpm),air temperature of the measurement (°C),ambient temperature measured by the external sensor (°C),aerosol sample conditioner tube jacket temperature (°C),OPC LED temperature (°C),internal box temperature (°C),relative humidity of the measurement (%),span deviation,mass concentration of particles derived from Lorenz-Mie calculation of OPC scattering (μg/m³),mass concentration of particles derived from Lorenz-Mie calculation of OPC scattering (μg/m³),mass concentration of particles derived from Lorenz-Mie calculation of OPC scattering (μg/m³)
DateTimeUTC,F1_M11,P_M11,Q1_M11,Q2_M11,T1_M11,T2_M11,T3_M11,T4_M11,T5_M11,U1_M11,ZSPAN_M11,X0_M11,X2_M11,X1_M11
2024-05-21 06:00:00,SystemResetWarning,0825.2,5.00,000.00,029.0,028.1,000.0,037.6,030.8,020.3,0000.0,0005.17,0001.08,0000.68
2024-05-21 06:01:00,SystemResetWarning,0825.2,5.00,000.00,029.0,028.1,000.0,037.6,030.8,020.3,0000.0,0005.29,0001.14,0000.73
2024-05-21 06:02:00,SystemResetWarning,0825.1,5.00,000.00,029.0,028.2,000.0,037.6,030.8,020.4,0000.0,0004.64,0001.23,0000.79
2024-05-21 06:03:00,SystemResetWarning,0825.1,5.00,000.00,029.0,028.2,000.0,037.6,030.8,020.3,0000.0,0004.30,0001.32,0000.84
2024-05-21 06:04:00,SystemResetWarning,0825.1,5.00,000.00,029.0,028.2,000.0,037.6,030.8,020.3,0000.0,0004.22,0001.34,0000.89
2024-05-21 06:05:00,SystemResetWarning,0825.1,5.00,000.00,029.0,028.2,000.0,037.6,030.8,020.4,0000.0,0004.01,0001.40,0000.93
2024-05-21 06:06:00,SystemResetWarning,0825.1,5.00,000.00,029.0,028.2,000.0,037.6,030.8,020.4,0000.0,0003.27,0001.44,0000.96
2024-05-21 06:07:00,SystemResetWarning,0825.1,5.00,000.00,029.0,028.2,000.0,037.6,030.8,020.4,0000.0,0002.95,0001.47,0000.99
2024-05-21 06:08:00,SystemResetWarning,0825.1,5.00,000.00,029.0,028.2,000.0,037.5,030.8,020.4,0000.0,0002.91,0001.48,0001.02
2024-05-21 06:09:00,SystemResetWarning,0825.1,5.00,000.00,029.0,028.2,000.0,037.5,030.8,020.4,0000.0,0003.17,0001.53,0001.05
2024-05-21 06:10:00,SystemResetWarning,0825.1,5.00,000.00,029.0,028.2,000.0,037.5,030.8,020.4,0000.0,0003.35,0001.59,0001.08
2024-05-21 06:11:00,SystemResetWarning,0825.1,5.00,000.00,029.0,028.2,000.0,037.5,030.8,020.3,0000.0,0003.38,0001.62,0001.11
2024-05-21 06:12:00,SystemResetWarning,0825.1,5.00,000.00,029.0,028.2,000.0,037.5,030.7,020.4,0000.0,0004.43,0001.64,0001.14
2024-05-21 06:13:00,SystemResetWarning,0825.1,5.00,000.00,029.0,028.2,000.0,037.5,030.8,020.5,0000.0,0004.73,0001.66,0001.15
2024-05-21 06:14:00,SystemResetWarning,0825.0,5.00,000.00,029.0,028.2,000.0,037.5,030.8,020.4,0000.0,0004.68,0001.65,0001.16
2024-05-21 06:15:00,SystemResetWarning,0824.9,5.00,000.00,029.0,028.2,000.0,037.5,030.8,020.5,0000.0,0006.07,0001.69,0001.17
2024-05-21 06:16:00,SystemResetWarning,0824.9,5.00,000.00,029.0,028.2,000.0,037.5,030.8,020.5,0000.0,0006.00,0001.75,0001.19
2024-05-21 06:17:00,SystemResetWarning,0824.8,5.00,000.00,029.0,028.2,000.0,037.5,030.8,020.5,0000.0,0005.96,0001.76,0001.20
2024-05-21 06:18:00,SystemResetWarning,0824.9,5.00,000.00,029.0,028.2,000.0,037.5,030.8,020.5,0000.0,0006.09,0001.80,0001.20
2024-05-21 06:19:00,SystemResetWarning,0824.8,5.00,000.00,029.0,028.2,000.0,037.5,030.7,020.5,0000.0,0006.17,0001.84,0001.21
2024-05-21 06:20:00,SystemResetWarning,0824.8,5.00,000.00,029.0,028.2,000.0,037.5,030.7,020.5,0000.0,0006.01,0001.82,0001.21
2024-05-21 06:21:00,SystemResetWarning,0824.8,5.00,000.00,029.0,028.2,000.0,037.5,030.8,020.6,0000.0,0005.72,0001.78,0001.21
2024-05-21 06:22:00,SystemResetWarning,0824.7,5.00,000.00,029.0,028.2,000.0,037.5,030.8,020.6,0000.0,0005.84,0001.80,0001.22
2024-05-21 06:23:00,SystemResetWarning,0824.7,5.00,000.00,029.0,028.2,000.0,037.5,030.8,020.6,0000.0,0006.07,0001.81,0001.22
2024-05-21 06:24:00,SystemResetWarning,0824.7,4.99,000.00,029.0,028.2,000.0,037.5,030.7,020.6,0000.0,0005.50,0001.87,0001.22
2024-05-21 06:25:00,SystemResetWarning,0824.7,5.00,000.00,029.0,028.2,000.0,037.5,030.7,020.6,0000.0,0005.44,0001.85,0001.23
2024-05-21 06:26:00,SystemResetWarning,0824.7,5.00,000.00,029.0,028.2,000.0,037.5,030.7,020.6,0000.0,0004.96,0001.88,0001.24
2024-05-21 06:27:00,SystemResetWarning,0824.6,5.00,000.00,029.0,028.2,000.0,037.5,030.7,020.6,0000.0,0004.18,0001.86,0001.24
2024-05-21 06:28:00,SystemResetWarning,0824.6,5.00,000.00,029.0,028.2,000.0,037.5,030.7,020.6,0000.0,0004.01,0001.80,0001.25
2024-05-21 06:29:00,SystemResetWarning,0824.5,5.00,000.00,029.0,028.2,000.0,037.5,030.7,020.6,0000.0,0003.88,0001.78,0001.26
2024-05-21 06:30:00,SystemResetWarning,0824.5,5.00,000.00,029.0,028.2,000.0,037.5,030.7,020.6,0000.0,0003.92,0001.82,0001.27
2024-05-21 06:31:00,SystemResetWarning,0824.4,5.00,000.00,029.0,028.2,000.0,037.5,030.7,020.6,0000.0,0003.97,0001.85,0001.28
2024-05-21 06:32:00,SystemResetWarning,0824.4,5.00,000.00,029.0,028.2,000.0,037.5,030.7,020.6,0000.0,0004.09,0001.90,0001.30
2024-05-21 06:33:00,SystemResetWarning,0824.4,5.00,000.00,029.0,028.2,000.0,037.5,030.7,020.6,0000.0,0004.25,0001.92,0001.30
2024-05-21 06:34:00,SystemResetWarning,0824.4,5.01,000.00,029.0,028.2,000.0,037.5,030.7,020.6,0000.0,0003.87,0001.92,0001.30
2024-05-21 06:35:00,SystemResetWarning,0824.4,4.99,000.00,029.0,028.2,000.0,037.5,030.8,020.7,0000.0,0003.46,0001.90,0001.31
2024-05-21 06:36:00,SystemResetWarning,0824.4,5.01,000.00,029.0,028.2,000.0,037.5,030.7,020.7,0000.0,0003.60,0001.93,0001.32
2024-05-21 06:37:00,SystemResetWarning,0824.4,5.00,000.00,029.0,028.2,000.0,037.4,030.7,020.7,0000.0,0003.71,0001.95,0001.32
2024-05-21 06:38:00,SystemResetWarning,0824.4,5.01,000.00,029.0,028.2,000.0,037.4,030.8,020.7,0000.0,0003.94,0001.99,0001.33
2024-05-21 06:39:00,SystemResetWarning,0824.4,5.00,000.00,028.9,028.2,000.0,037.4,030.8,020.7,0000.0,0004.04,0002.05,0001.34
2024-05-21 06:40:00,SystemResetWarning,0824.4,5.00,000.00,028.9,028.2,000.0,037.4,030.7,020.6,0000.0,0004.06,0002.03,0001.34
2024-05-21 06:41:00,SystemResetWarning,0824.4,5.00,000.00,028.9,028.2,000.0,037.4,030.7,020.6,0000.0,0004.14,0001.98,0001.34
2024-05-21 06:42:00,SystemResetWarning,0824.3,5.00,000.00,028.9,028.2,000.0,037.4,030.8,020.6,0000.0,0004.15,0001.96,0001.34
2024-05-21 06:43:00,SystemResetWarning,0824.4,5.00,000.00,028.9,028.2,000.0,037.4,030.7,020.6,0000.0,0004.13,0001.95,0001.35
2024-05-21 06:44:00,SystemResetWarning,0824.4,5.00,000.00,028.9,028.2,000.0,037.4,030.7,020.6,0000.0,0004.83,0001.95,0001.35
2024-05-21 06:45:00,SystemResetWarning,0824.3,5.00,000.00,028.9,028.1,000.0,037.4,030.7,020.6,0000.0,0005.13,0001.91,0001.36
2024-05-21 06:46:00,SystemResetWarning,0824.3,5.00,000.00,028.9,028.1,000.0,037.4,030.7,020.6,0000.0,0005.20,0001.94,0001.36
2024-05-21 06:47:00,SystemResetWarning,0824.3,5.00,000.00,028.9,028.1,000.0,037.4,030.7,020.6,0000.0,0005.01,0001.93,0001.36
2024-05-21 06:48:00,SystemResetWarning,0824.3,5.00,000.00,028.9,028.1,000.0,037.4,030.7,020.6,0000.0,0005.00,0001.95,0001.36
2024-05-21 06:49:00,SystemResetWarning,0824.3,5.00,000.00,028.9,028.1,000.0,037.4,030.7,020.6,0000.0,0004.80,0001.93,0001.36
2024-05-21 06:50:00,SystemResetWarning,0824.2,5.00,000.00,028.9,028.1,000.0,037.4,030.7,020.6,0000.0,0005.20,0001.91,0001.37
2024-05-21 06:51:00,SystemResetWarning,0824.3,5.00,000.00,028.9,028.1,000.0,037.4,030.7,020.7,0000.0,0006.06,0001.91,0001.37
2024-05-21 06:52:00,SystemResetWarning,0824.3,4.99,000.00,028.9,028.1,000.0,037.4,030.7,020.7,0000.0,0005.92,0001.92,0001.38
2024-05-21 06:53:00,SystemResetWarning,0824.3,4.99,000.00,028.9,028.1,000.0,037.4,030.7,020.7,0000.0,0005.89,0001.94,0001.38
2024-05-21 06:54:00,SystemResetWarning,0824.3,5.00,000.00,028.9,028.1,000.0,037.4,030.7,020.7,0000.0,0006.74,0001.96,0001.37
2024-05-21 06:55:00,SystemResetWarning,0824.3,5.00,000.00,028.9,028.1,000.0,037.4,030.7,020.7,0000.0,0006.14,0001.96,0001.38
2024-05-21 06:56:00,SystemResetWarning,0824.3,5.00,000.00,028.9,028.1,000.0,037.4,030.7,020.7,0000.0,0005.49,0001.95,0001.37
2024-05-21 06:57:00,SystemResetWarning,0824.3,5.00,000.00,028.9,028.1,000.0,037.4,030.7,020.7,0000.0,0005.32,0001.90,0001.37
2024-05-21 06:58:00,SystemResetWarning,0824.2,5.00,000.00,028.9,028.1,000.0,037.4,030.7,020.8,0000.0,0005.31,0001.89,0001.37
2024-05-21 06:59:00,SystemResetWarning,0824.3,5.00,000.00,028.9,028.1,000.0,037.4,030.7,020.8,0000.0,0005.16,0001.82,0001.37
